Location: Cazavet
(43.0017°N, 1.0431°E)
Time: 20:48:55
(UTC+00:00)

Okean 1-7 - Pass Details

Date: 18 January 2026
Orbit: 566 x 588 km, 82.5° (Epoch: 10 February)

Event Time Altitude Azimuth Distance (km) Brightness Sun altitude
Rises 06:28:41 0° 345° (NNW) 2,783 6.1 -9.9°
Reaches altitude 10° 06:30:56 10° 339° (NNW) 1,884 5.2 -9.5°
Maximum altitude 06:34:53 45° 267° (W) 787 3.2 -8.8°
Drops below altitude 10° 06:38:51 10° 194° (SSW) 1,882 5.6 -8.2°
Sets 06:41:06 0° 188° (S) 2,779 6.6 -7.8°
